Cape Race, Canada

10:51 AM NDT on July 23, 2017 (GMT -0230)
Cape Race

Weather History for CWRA - November, 2012

Change the Weather History Date:

Wednesday, November 21, 2012

  Actual Average Record
Temperature  
Mean Temperature 34 °F -  
Max Temperature 39 °F - - ()
Min Temperature 30 °F - - ()
Degree Days  
Heating Degree Days 30    
Moisture  
Dew Point 28 °F    
Average Humidity 73    
Maximum Humidity 94    
Minimum Humidity 52    
Precipitation  
Precipitation 0.00 in - - ()
Sea Level Pressure  
Sea Level Pressure 30.28 in    
Wind  
Wind Speed 18 mph ()    
Max Wind Speed 25 mph    
Max Gust Speed 36 mph    
T = Trace of Precipitation, MM = Missing Value Source: Averaged Metar Reports

Daily Weather History Graph

Daily Weather History Graph

Search for Another Location

Airport or City:

Trip Planner

Search our weather history database for the weather conditions in past years. The results will help you decide how hot, cold, wet, or windy it might be!

Date:

Astronomy

Nov. 21, 2012 Rise Set
Actual Time 7:13 AM NST 4:22 PM NST
Civil Twilight 6:40 AM NST 4:56 PM NST
Nautical Twilight 6:02 AM NST 5:33 PM NST
Astronomical Twilight 5:26 AM NST 6:09 PM NST
Moon 12:56 PM NST (11/21) 12:03 AM NST (11/21)
Length of Visible Light 10h 15m
Length of Day
9h 08m
First Quarter, 61% of the Moon is Illuminated
Nov 21
First Quarter
Nov 28
Full
Dec 6
Last Quarter
Dec 13
New
Dec 20
First Quarter

Hourly Weather History & Observations

Time (NST) Temp. Windchill Dew Point Humidity Pressure Visibility Wind Dir Wind Speed Gust Speed Precip Events Conditions
12:30 AM 32.0 °F 19.5 °F 19.9 °F 61% 30.20 in - NNE 21.9 mph 28.8 mph N/A   Unknown
1:30 AM 31.8 °F 19.3 °F 21.0 °F 64% 30.20 in - NNE 21.9 mph 29.9 mph N/A   Unknown
2:30 AM 33 °F - 23 °F 55% 30.22 in - NNE 18.4 mph - -  
2:30 AM 33.1 °F 21.9 °F 23.0 °F 66% 30.22 in - NNE 18.4 mph 26.5 mph N/A   Unknown
3:30 AM 33.3 °F 22.5 °F 23.4 °F 67% 30.22 in - NNE 17.3 mph 23.0 mph N/A   Unknown
4:30 AM 35.6 °F 23.7 °F 25.5 °F 67% 30.23 in - NE 24.2 mph 32.2 mph N/A   Unknown
5:30 AM 35 °F - 24 °F 52% 30.22 in - NE 25.3 mph - -  
5:30 AM 34.9 °F 22.5 °F 23.9 °F 64% 30.22 in - NE 25.3 mph 35.7 mph N/A   Unknown
6:30 AM 35.6 °F 23.7 °F 26.1 °F 68% 30.24 in - NE 24.2 mph 34.5 mph N/A   Unknown
7:30 AM 35.4 °F 24.6 °F 27.7 °F 73% 30.26 in - NNE 19.6 mph 27.6 mph N/A   Unknown
8:30 AM 37 °F - 29 °F 62% 30.28 in - NE 23.0 mph - -  
8:30 AM 36.7 °F 25.4 °F 28.6 °F 72% 30.28 in - NE 23.0 mph 31.1 mph N/A   Unknown
9:30 AM 37.4 °F 25.9 °F 27.9 °F 68% 30.28 in - NE 25.3 mph 34.5 mph N/A   Unknown
10:30 AM 36.9 °F 25.1 °F 28.2 °F 71% 30.30 in - NE 25.3 mph 33.4 mph N/A   Unknown
11:30 AM 38 °F - 29 °F 60% 30.29 in - NE 21.9 mph - -  
11:30 AM 37.8 °F 27.1 °F 28.9 °F 71% 30.29 in - NE 21.9 mph 29.9 mph N/A   Unknown
12:30 PM 37.2 °F 26.1 °F 28.9 °F 72% 30.28 in - NE 23.0 mph 28.8 mph N/A   Unknown
1:30 PM 37.4 °F 27.2 °F 29.5 °F 73% 30.27 in - NE 19.6 mph 26.5 mph N/A   Unknown
2:30 PM 36 °F - 30 °F 70% 30.27 in - NE 20.7 mph - -  
2:30 PM 36.5 °F 25.7 °F 29.8 °F 77% 30.27 in - NE 20.7 mph - N/A   Unknown
3:30 PM 36.1 °F 26.2 °F 28.0 °F 72% 30.29 in - ENE 17.3 mph 26.5 mph N/A   Unknown
4:30 PM 37.2 °F 28.7 °F 30.7 °F 77% 30.31 in - NE 13.8 mph - N/A   Unknown
5:30 PM 37 °F - 30 °F 69% 30.31 in - NE 11.5 mph - -  
5:30 PM 37.0 °F 29.3 °F 30.4 °F 77% 30.31 in - NE 11.5 mph - N/A   Unknown
6:30 PM 36.1 °F 27.3 °F 31.5 °F 83% 30.32 in - NE 13.8 mph 19.6 mph N/A   Unknown
7:30 PM 36.3 °F 28.4 °F 31.3 °F 82% 30.33 in - NE 11.5 mph 18.4 mph N/A   Unknown
8:30 PM 33 °F - 31 °F 90% 30.33 in - North 9.2 mph - -  
8:30 PM 32.9 °F 25.3 °F 31.1 °F 93% 30.33 in - North 9.2 mph - N/A   Unknown
9:30 PM 32.9 °F 24.7 °F 30.6 °F 91% 30.32 in - North 10.4 mph - N/A   Unknown
10:30 PM 31.3 °F 22.7 °F 29.7 °F 94% 30.30 in - North 10.4 mph - N/A   Unknown
11:30 PM 31 °F - 30 °F 93% 30.31 in - North 10.4 mph - -  
11:30 PM 31.5 °F 22.9 °F 29.8 °F 94% 30.31 in - North 10.4 mph - N/A   Unknown